CAPE
0 0 0 0 0 0 0 0 0 0 0 0 0 0 0 0 0 0 0 0 0 0 0 0 0 0 0 1 3 1 0 0 1 0 0 0 1 3 1 7 7 5 2
0 0 0 0 0 0 0 0 0 0 0 0 0 0 0 0 0 0 0 0 0 0 0 0 0 1 0 4 5 6 1 1 5 8 6 2 0 10 10 8 12 11 10
0 0 0 0 0 0 0 0 0 0 0 0 0 0 0 0 0 0 0 0 0 0 1 3 2 5 7 6 10 8 12 9 8 16 9 12 4 0 7 15 15 20 20
0 0 0 0 0 0 0 0 0 0 0 0 0 0 0 0 0 0 0 0 0 0 0 2 8 13 12 15 14 11 19 21 18 14 14 13 14 27 6 9 19 19 24
0 0 0 0 0 0 0 0 0 0 0 0 0 0 0 0 0 0 0 0 0 0 2 5 12 15 17 20 20 19 22 23 17 15 16 18 15 16 40 29 15 18 17
0 0 0 0 0 0 0 0 0 0 0 0 0 0 0 0 0 0 0 0 0 0 1 4 16 20 19 20 17 17 18 16 15 12 11 17 23 28 29 32 19 20 20
0 0 0 0 0 0 0 0 0 0 0 0 0 0 0 0 0 0 0 0 0 0 0 7 13 21 27 22 16 15 13 13 13 20 20 22 24 24 33 39 36 22 19
0 0 0 0 0 0 0 0 0 0 0 0 0 0 0 0 0 0 0 0 0 0 2 8 18 25 24 16 13 16 12 15 16 16 15 35 29 34 48 57 65 38 19
0 0 0 0 0 0 0 0 0 0 0 0 0 0 0 0 0 0 0 0 0 0 3 13 24 22 18 10 10 13 11 19 22 27 25 26 34 33 52 60 73 72 49
0 0 0 0 0 0 0 0 0 0 0 0 0 0 0 0 0 0 0 0 0 3 5 14 17 16 10 8 11 10 10 13 18 22 26 23 33 36 47 69 62 61 70
0 0 0 0 0 0 0 0 0 0 0 0 0 0 0 0 0 0 0 0 3 3 7 11 11 9 3 11 11 10 13 22 18 24 26 26 34 59 70 66 58 75 74
0 0 0 0 0 0 3 0 0 0 0 0 0 0 0 0 0 0 0 0 1 5 5 3 3 1 10 12 9 12 18 25 15 13 30 30 35 50 56 70 87 66 54
0 0 0 0 0 1 1 1 0 0 0 0 0 0 0 0 0 0 0 0 0 0 0 0 2 11 11 12 10 14 22 14 12 24 33 36 38 54 61 88 85 85 67
0 0 0 0 0 2 8 2 0 0 0 0 0 0 0 0 0 0 0 0 0 0 0 2 7 10 13 9 10 17 20 12 15 27 27 35 39 56 58 48 62 82 86
0 0 0 0 0 5 2 0 0 0 0 0 0 0 0 0 0 0 0 0 0 0 0 1 3 7 7 3 20 30 13 13 12 15 17 27 26 16 29 64 51 50 64
0 0 0 0 1 7 5 0 0 0 0 0 0 0 0 0 0 0 0 0 0 0 0 0 1 4 4 1 14 19 11 8 11 20 18 22 15 24 13 21 26 44 35
0 0 0 0 3 8 0 5 0 0 0 0 0 0 0 0 0 0 0 0 0 0 0 0 0 1 5 0 11 8 11 11 18 27 21 17 12 24 30 14 10 9 2
0 0 0 1 7 4 2 0 0 0 0 0 0 0 0 0 0 0 0 0 0 0 0 0 0 0 1 0 7 6 8 9 17 20 19 19 20 25 26 22 18 21 18
0 0 0 1 1 0 0 0 0 0 0 0 0 0 0 0 0 0 0 0 0 0 0 0 0 0 0 0 6 9 7 8 8 14 15 23 22 16 16 14 22 23 40
0 0 0 0 1 0 0 0 0 0 0 0 0 0 0 0 0 0 0 0 0 0 0 0 0 0 0 0 2 9 9 8 6 5 5 0 10 9 10 13 23 15 21
0 0 0 3 0 0 0 0 0 0 0 0 0 0 0 0 0 0 0 0 0 0 0 0 0 0 0 0 0 3 9 18 9 7 8 8 7 9 10 9 17 13 9
0 0 1 0 0 0 0 0 0 0 0 0 0 0 0 0 0 0 0 0 0 0 0 0 0 0 0 0 0 0 3 8 11 12 15 15 11 10 8 8 4 1 7
0 0 0 0 0 0 0 0 0 0 0 0 0 0 0 0 0 0 0 0 0 0 0 0 0 0 0 0 0 0 0 2 14 15 13 7 5 5 4 5 4 1 33
0 0 0 0 0 0 0 0 0 0 0 0 0 0 0 0 0 0 0 0 0 0 0 0 0 0 0 0 0 1 2 7 7 10 23 11 3 5 10 17 18 24 19
0 0 0 0 0 0 0 0 0 0 0 0 0 0 0 0 0 0 0 0 0 0 0 0 0 8 5 10 6 8 15 20 11 19 24 27 24 25 23 19 23 24 19
0 0 0 0 0 0 0 0 0 0 0 0 0 0 0 0 0 0 0 0 0 0 0 0 0 3 0 0 0 0 0 0 0 10 22 21 20 19 18 23 28 26 20
CIN
-0 -0 -0 -0 -0 -0 -0 -0 -0 -0 -0 -0 -0 -0 -0 -0 -0 -0 -0 -0 -0 -0 -0 -0 -0 -0 -0 -0 -0 -0 -0 -0 -0 -0 -0 -0 -0 -0 -0 -0 -0 -0 -0
-0 -0 -0 -0 -0 -0 -0 -0 -0 -0 -0 -0 -0 -0 -0 -0 -0 -0 -0 -0 -0 -0 -0 -0 -0 -0 -0 -0 -0 -0 -0 -0 -0 -0 -0 -0 -0 -0 -0 -0 -0 -0 -0
-0 -0 -0 -0 -0 -0 -0 -0 -0 -0 -0 -0 -0 -0 -0 -0 -0 -0 -0 -0 -0 -0 -0 -0 -0 -0 -0 -0 -0 -0 -0 -0 -0 -0 -0 -0 -0 -0 -0 -0 -0 -0 -0
-0 -0 -0 -0 -0 -0 -0 -0 -0 -0 -0 -0 -0 -0 -0 -0 -0 -0 -0 -0 -0 -0 -0 -0 -0 -0 -0 -0 -0 -0 -0 -0 -0 -0 -0 -0 -0 -0 -0 -0 -0 -0 -0
-0 -0 -0 -0 -0 -0 -0 -0 -0 -0 -0 -0 -0 -0 -0 -0 -0 -0 -0 -0 -0 -0 -0 -0 -0 -0 -0 -0 -0 -0 -0 -0 -0 -0 -0 -0 -0 -0 -0 -0 -0 -0 -0
-0 -0 -0 -0 -0 -0 -0 -0 -0 -0 -0 -0 -0 -0 -0 -0 -0 -0 -0 -0 -0 -0 -0 -0 -0 -0 -0 -0 -0 -0 -0 -0 -0 -0 -0 -0 -0 -0 -0 -0 -0 -0 -0
-0 -0 -0 -0 -0 -0 -0 -0 -0 -0 -0 -0 -0 -0 -0 -0 -0 -0 -0 -0 -0 -0 -0 -0 -0 -0 -0 -0 -0 -0 -0 -0 -0 -0 -0 -0 -0 -0 -0 -0 -0 -0 -0
-0 -0 -0 -0 -0 -0 -0 -0 -0 -0 -0 -0 -0 -0 -0 -0 -0 -0 -0 -0 -0 -0 -0 -0 -0 -0 -0 -0 -0 -0 -0 -0 -1 -0 -0 -0 -0 -0 -0 -0 -0 -0 -0
-0 -0 -0 -0 -0 -0 -0 -0 -0 -0 -0 -0 -0 -0 -0 -0 -0 -0 -0 -0 -0 -0 -0 -0 -0 -0 -0 -0 -0 -0 -0 -0 -0 -0 -0 -0 -0 -0 -0 -0 -0 -0 -0
-0 -0 -0 -0 -0 -0 -0 -0 -0 -0 -0 -0 -0 -0 -0 -0 -0 -0 -0 -0 -0 -0 -0 -0 -0 -0 -0 -0 -0 -0 -0 -0 -0 -0 -0 -0 -0 -0 -0 -0 -0 -0 -0
-0 -0 -0 -0 -0 -0 -0 -0 -0 -0 -0 -0 -0 -0 -0 -0 -0 -0 -0 -0 -0 -0 -0 -0 -0 -0 -0 -0 -0 -0 -0 -0 -0 -0 -0 -0 -0 -0 -0 -0 -0 -0 -0
-0 -0 -0 -0 -0 -0 -0 -0 -0 -0 -0 -0 -0 -0 -0 -0 -0 -0 -0 -0 -0 -0 -0 -0 -0 -0 -0 -0 -0 -0 -0 -0 -0 -0 -0 -0 -0 -0 -0 -0 -0 -0 -0
-0 -0 -0 -0 -0 -0 -0 -0 -0 -0 -0 -0 -0 -0 -0 -0 -0 -0 -0 -0 -0 -0 -0 -0 -0 -0 -0 -0 -0 -0 -0 -0 -0 -0 -0 -0 -0 -0 -0 -0 -0 -0 -0
-0 -0 -0 -0 -0 -0 -0 -0 -0 -0 -0 -0 -0 -0 -0 -0 -0 -0 -0 -0 -0 -0 -0 -0 -0 -0 -0 -0 -0 -0 -0 -0 -0 -0 -0 -0 -0 -0 -0 -0 -0 -0 -0
-0 -0 -0 -0 -0 -0 -0 -0 -0 -0 -0 -0 -0 -0 -0 -0 -0 -0 -0 -0 -0 -0 -0 -0 -0 -0 -0 -0 -0 -0 -0 -0 -0 -0 -0 -0 -0 -0 -0 -0 -0 -0 -0
-0 -0 -0 -0 -0 -0 -0 -0 -0 -0 -0 -0 -0 -0 -0 -0 -0 -0 -0 -0 -0 -0 -0 -0 -0 -0 -0 -0 -0 -0 -0 -0 -0 -0 -0 -0 -0 -0 -0 -0 -0 -0 -0
-0 -0 -0 -0 -0 -0 -0 -0 -0 -0 -0 -0 -0 -0 -0 -0 -0 -0 -0 -0 -0 -0 -0 -0 -0 -0 -0 -0 -0 -0 -0 -0 -0 -0 -0 -0 -0 -0 -0 -0 -0 -0 -1
-0 -0 -0 -0 -0 -0 -0 -0 -0 -0 -0 -0 -0 -0 -0 -0 -0 -0 -0 -0 -0 -0 -0 -0 -0 -0 -0 -0 -0 -0 -0 -0 -0 -0 -0 -0 -0 -0 -0 -0 -0 -0 -0
-0 -0 -0 -0 -0 -0 -0 -0 -0 -0 -0 -0 -0 -0 -0 -0 -0 -0 -0 -0 -0 -0 -0 -0 -0 -0 -0 -0 -0 -0 -0 -0 -0 -0 -0 -0 -0 -0 -0 -0 -0 -0 -0
-0 -0 -0 -0 -0 -0 -0 -0 -0 -0 -0 -0 -0 -0 -0 -0 -0 -0 -0 -0 -0 -0 -0 -0 -0 -0 -0 -0 -0 -0 -0 -0 -0 -0 -0 -0 -0 -0 -0 -0 -0 -0 -0
-0 -0 -0 -0 -0 -0 -0 -0 -0 -0 -0 -0 -0 -0 -0 -0 -0 -0 -0 -0 -0 -0 -0 -0 -0 -0 -0 -0 -0 -0 -0 -0 -0 -0 -0 -0 -0 -0 -0 -0 -0 -0 -0
-0 -0 -0 -0 -0 -0 -0 -0 -0 -0 -0 -0 -0 -0 -0 -0 -0 -0 -0 -0 -0 -0 -0 -0 -0 -0 -0 -0 -0 -0 -0 -0 -0 -0 -0 -0 -0 -0 -0 -0 -0 -0 -0
-0 -0 -0 -0 -0 -0 -0 -0 -0 -0 -0 -0 -0 -0 -0 -0 -0 -0 -0 -0 -0 -0 -0 -0 -0 -0 -0 -0 -0 -0 -0 -0 -0 -0 -0 -0 -0 -0 -0 -0 -0 -0 -0
-0 -0 -0 -0 -0 -0 -0 -0 -0 -0 -0 -0 -0 -0 -0 -0 -0 -0 -0 -0 -0 -0 -0 -0 -0 -0 -0 -0 -0 -0 -0 -0 -0 -0 -0 -0 -0 -0 -0 -0 -0 -0 -0
-0 -0 -0 -0 -0 -0 -0 -0 -0 -0 -0 -0 -0 -0 -0 -0 -0 -0 -0 -0 -0 -0 -0 -0 -0 -0 -0 -0 -0 -0 -0 -0 -0 -0 -0 -0 -0 -0 -0 -0 -0 -0 -0
-0 -0 -0 -0 -0 -0 -0 -0 -0 -0 -0 -0 -0 -0 -0 -0 -0 -0 -0 -0 -0 -0 -0 -0 -0 -0 -0 -0 -0 -0 -0 -0 -0 -0 -0 -0 -0 -0 -0 -0 -0 -0 -0
Wind_Speed
12 13 13 13 13 11 11 10 9 8 4 4 2 1 2 2 3 5 6 6 7 8 8 8 8 8 8 9 10 10 11 9 10 10 10 9 5 5 4 6 6 7 8
13 13 14 13 12 11 11 10 8 6 5 4 5 3 2 3 5 4 4 7 7 8 8 8 8 8 8 9 10 10 10 9 9 9 11 7 8 4 8 4 5 7 7
13 14 14 13 12 12 10 10 10 9 10 7 1 2 4 3 2 3 5 5 8 7 8 8 8 8 8 8 10 10 13 10 10 9 4 7 7 13 2 7 4 7 7
11 13 13 13 12 12 11 12 11 11 10 8 3 5 6 6 5 5 5 6 6 7 8 8 8 8 8 9 9 9 10 10 10 8 6 7 7 6 9 5 10 8 10
11 13 13 13 13 12 12 11 12 11 7 6 5 5 6 3 3 5 6 6 6 6 7 8 8 9 8 9 10 11 11 9 7 6 7 8 7 8 7 12 10 10 9
11 13 13 13 12 12 11 10 11 7 7 6 7 7 6 6 7 7 6 6 5 5 6 8 8 9 10 10 10 11 11 10 8 7 7 7 5 7 7 10 12 12 11
11 13 14 12 11 11 11 10 8 7 6 6 7 7 7 8 6 8 7 8 7 6 7 9 9 9 10 11 11 11 10 10 7 10 8 8 8 7 9 10 11 11 10
11 12 12 11 11 11 11 9 7 7 6 7 7 7 7 5 6 8 7 7 6 7 10 9 9 11 11 11 11 9 8 10 8 11 9 8 8 8 8 8 10 11 10
11 12 11 10 10 10 10 8 7 5 6 7 6 6 7 8 8 8 8 7 8 8 9 11 10 11 11 12 13 8 9 10 9 9 8 8 8 8 8 9 8 9 11
11 11 10 10 9 11 9 7 4 6 6 6 6 7 8 8 8 8 9 9 9 10 10 10 11 11 12 13 12 9 9 10 8 8 10 9 8 10 9 8 8 8 9
11 11 9 9 11 10 8 4 4 5 6 6 7 7 7 8 8 7 9 9 10 10 10 11 11 12 13 12 10 11 12 11 12 10 9 11 12 9 8 8 8 8 8
10 10 10 10 9 8 6 3 4 6 6 6 7 7 8 8 8 9 10 10 11 10 11 11 12 12 12 12 11 12 15 12 14 13 11 12 9 12 10 8 10 9 10
10 9 9 9 8 6 2 4 5 6 6 6 6 7 8 9 9 10 10 11 11 11 11 11 11 12 12 12 12 14 16 13 13 12 12 12 12 11 9 10 8 9 9
9 9 8 8 7 5 4 2 5 5 5 6 7 7 9 9 10 10 10 10 11 11 11 11 11 12 12 11 14 16 16 14 12 12 12 11 11 11 12 10 11 9 9
9 9 8 8 7 4 1 2 4 4 5 6 7 8 9 8 9 10 10 10 11 11 11 11 11 12 11 10 16 17 17 15 13 12 11 10 12 16 13 10 11 12 10
8 8 8 7 5 3 2 3 3 4 5 6 7 8 8 9 9 9 10 10 11 11 11 11 12 12 9 19 23 21 16 14 13 12 12 11 13 12 17 18 19 15 10
9 9 7 8 5 4 3 1 3 3 5 6 8 8 8 9 9 9 10 11 11 11 12 12 13 13 12 20 24 25 14 13 13 12 11 10 9 13 13 17 17 14 14
8 8 9 7 6 6 4 4 3 4 5 7 7 8 8 8 9 10 11 11 11 12 12 12 14 14 11 19 25 26 15 12 14 12 11 11 13 13 17 15 13 10 9
7 9 7 7 6 6 5 4 3 5 6 7 7 7 8 9 10 11 12 11 12 12 11 12 13 14 14 19 25 22 15 15 15 13 12 11 12 20 21 14 12 11 8
9 9 8 7 6 6 6 4 4 4 6 6 6 7 7 9 10 11 11 11 11 11 10 12 12 12 15 19 24 21 12 15 13 13 13 15 16 22 19 12 10 10 9
10 9 8 6 7 7 4 4 4 6 5 4 6 7 8 9 10 10 10 11 11 11 12 13 12 14 15 17 24 24 14 12 11 11 11 11 24 22 18 16 10 11 11
9 7 7 7 7 6 3 4 6 4 4 5 6 7 8 7 8 11 11 11 12 12 12 13 12 12 15 18 22 24 22 21 12 11 10 12 22 21 17 14 19 15 7
8 7 7 8 6 5 4 5 4 3 3 6 6 7 7 8 8 10 11 9 11 11 11 11 11 12 12 14 23 23 24 22 12 11 15 20 20 19 13 17 17 11 8
7 7 7 7 6 6 6 5 4 3 1 3 5 6 7 9 8 7 8 9 9 10 10 11 11 12 12 13 15 14 14 19 14 16 12 12 13 11 11 11 11 9 8
7 6 6 6 6 6 6 5 2 3 4 5 6 7 6 8 8 7 6 8 8 9 9 9 10 11 12 14 20 17 12 13 14 12 10 10 11 12 12 11 12 10 10
7 7 8 8 4 5 3 3 3 5 6 6 5 6 6 6 7 7 5 8 5 6 10 12 10 9 14 21 24 23 21 23 20 10 11 12 11 12 12 12 12 11 12
Wind_Direction
131 142 136 136 129 126 122 117 112 109 132 149 138 100 21 52 29 45 15 22 12 2 354 351 350 346 346 346 342 337 336 333 345 319 331 304 250 298 289 311 296 319 309
136 135 140 135 137 124 111 111 111 92 53 51 39 357 3 51 27 16 19 14 5 1 351 353 347 354 340 344 346 344 335 334 339 331 318 323 299 154 293 309 317 324 313
140 141 142 135 127 119 114 100 84 79 61 66 49 63 185 199 357 352 7 25 356 359 357 351 346 343 340 344 341 345 336 328 322 350 323 329 347 330 99 306 295 335 307
133 139 136 137 115 104 96 83 81 78 61 33 27 349 6 4 7 348 11 339 4 352 355 345 345 342 336 342 341 337 327 326 322 340 327 300 268 293 313 330 315 325 307
129 136 137 121 113 108 97 96 81 73 67 54 14 350 19 20 2 352 342 352 358 354 357 342 334 339 339 340 335 330 326 320 324 316 304 303 303 259 269 299 323 310 324
123 126 119 125 116 103 97 90 86 83 68 52 41 32 23 5 2 357 343 353 350 340 3 337 333 332 339 334 330 325 321 324 323 314 293 281 288 300 301 295 301 307 306
128 135 142 132 117 116 102 92 92 77 63 52 40 30 16 19 353 350 354 342 344 343 355 336 331 335 333 329 328 321 336 326 315 295 291 291 287 285 291 291 291 300 306
140 148 140 133 118 101 93 95 87 70 49 39 33 28 16 360 356 359 350 346 335 336 335 332 323 327 330 330 327 323 335 324 309 297 301 299 292 282 274 276 292 296 296
146 142 132 115 111 110 97 89 75 62 40 36 23 21 8 5 359 349 346 343 336 331 332 324 321 327 331 329 325 341 325 310 308 302 295 290 294 296 286 283 278 289 296
142 141 132 126 116 97 97 78 58 52 40 34 17 14 5 359 354 346 345 338 334 329 326 326 328 330 331 329 328 332 329 312 310 299 300 295 278 279 282 283 282 278 281
147 147 135 127 107 110 93 105 72 49 34 26 15 9 0 355 350 345 343 343 335 335 334 334 331 333 331 331 335 329 323 308 313 311 302 295 294 288 288 285 274 276 276
149 142 140 128 127 119 87 88 62 40 29 24 10 2 359 352 355 356 352 346 344 341 339 336 335 334 335 337 331 334 318 316 318 316 306 298 294 294 289 282 281 277 277
148 150 148 136 133 132 135 61 44 40 24 12 4 7 1 0 358 357 355 352 349 347 343 339 339 339 340 334 348 323 322 321 319 318 307 303 298 297 295 296 291 285 276
161 162 158 143 153 104 71 50 52 29 15 9 5 11 6 1 0 357 355 355 350 348 345 344 343 343 340 349 338 327 323 322 320 316 311 304 304 303 305 312 298 287 291
173 172 163 151 125 120 227 75 45 29 11 7 10 11 7 6 3 1 359 357 355 353 349 346 348 345 344 12 333 333 329 319 317 320 313 314 317 307 308 304 302 299 293
170 166 162 136 141 161 212 77 54 31 4 15 15 14 10 10 6 2 359 357 356 356 355 354 352 350 347 356 338 338 325 322 325 323 319 324 315 317 309 304 292 279 288
170 167 159 136 158 172 159 59 85 36 15 20 20 17 12 8 4 1 359 359 356 352 354 358 357 352 355 354 342 343 323 328 324 326 326 324 320 317 322 313 302 277 259
163 156 123 139 143 192 130 113 85 41 30 29 26 19 8 7 3 2 0 358 352 358 359 356 358 357 4 0 347 343 335 332 333 333 333 330 324 328 327 318 305 297 283
127 120 128 129 174 142 115 102 71 47 47 36 26 17 4 4 1 2 358 356 353 357 357 356 358 1 355 10 353 348 340 341 341 340 339 338 331 335 332 319 314 308 296
114 119 124 151 149 113 116 94 55 58 50 31 19 8 2 358 359 356 356 353 355 355 355 358 2 360 358 10 359 355 344 343 338 340 338 344 347 338 339 331 324 321 329
113 121 154 143 108 115 107 78 70 61 58 24 5 5 358 360 353 350 357 355 356 356 1 360 4 1 0 0 2 357 350 348 334 339 340 340 343 342 345 344 342 325 308
127 162 122 115 109 111 92 77 75 77 46 13 1 359 357 356 351 353 360 2 2 360 3 1 3 2 357 9 0 354 354 354 340 343 341 339 342 347 348 352 345 339 331
130 126 116 115 109 95 54 80 88 67 20 13 350 342 353 357 3 359 2 5 6 2 2 2 359 358 355 360 357 354 355 356 347 347 342 347 348 352 357 353 353 360 3
123 116 125 120 107 86 77 93 47 38 51 260 330 3 8 343 11 14 9 10 10 1 2 3 357 355 354 359 352 353 352 353 355 344 344 346 350 1 359 1 4 7 1
124 126 117 107 79 78 84 73 33 343 348 2 13 9 6 4 4 25 21 17 30 10 358 3 353 353 352 353 351 353 352 355 345 338 351 3 5 5 6 6 7 10 9
128 120 107 108 113 105 79 41 28 8 3 18 17 27 359 4 7 8 18 112 84 29 24 15 10 350 354 350 356 357 357 4 356 5 6 7 6 6 3 3 2 9 10